Flag for South Africa Weather past 2 weeks in Port Elizabeth, South Africa

Now
50 °F

Clear.


Feels Like: 49 °F
Forecast: 42 / 64 °F
Wind: 3 mph from West

Location: Port Elizabeth Airport

Current Time: Jul 1, 2015 at 9:20:50 PM

Latest Report: Jul 1, 2015 at 9:00 PM


Visibility: 10 mi

Pressure: 30.33 "Hg

Humidity: 88%

Dew point: 46 °F

Location of Port ElizabethLocation

Historic Weather in Port Elizabeth — Graph

°F

Port Elizabeth temperature yesterday

Maximum temperature yesterday: 66 °F (at 3:00 PM)
Minimum temperature yesterday: 43 °F (at 6:00 AM)
Average temperature yesterday: 52 °F

Past Weeks' High & Low Weather Summary

 TemperatureHumidityPressure
High77 °F (Jun 22, 4:00 PM)100% (Jun 30, 7:55 AM)30.48 "Hg (Jun 30, 7:55 AM)
Low43 °F (Jun 21, 7:00 AM)36% (Jun 24, 11:57 AM)29.80 "Hg (Jun 16, 9:00 PM)
Average57 °F75%30.18 "Hg
* Reported Jun 16 8:00 PM — Jul 1 8:00 PM, Port Elizabeth, Weather by CustomWeather, © 2015

Note: Actual official high and low records may vary slightly from our data, if they occured in-between our weather recording intervals... More about our weather records

Advertising

Port Elizabeth weather history for previous 24 hours

 ConditionsComfort  
Time TempWeatherWind HumidityBarometerVisibility
8:00 PM
Wed, Jul 1
54 °FClear.3 mph88%30.33 "Hg10 mi
7:00 PM55 °FPassing clouds.3 mph82%30.33 "HgN/A
6:00 PM55 °FPassing clouds.6 mph82%30.30 "HgN/A
5:00 PM61 °FPassing clouds.9 mph72%30.30 "HgN/A
4:00 PM63 °FSunny.12 mph68%30.30 "Hg10 mi
3:00 PM64 °FSunny.14 mph68%30.30 "Hg10 mi
1:00 PM66 °FPassing clouds.12 mph49%30.33 "HgN/A
12:00 PM64 °FSunny.13 mph60%30.33 "Hg10 mi
11:00 AM63 °FSunny.14 mph64%30.36 "Hg10 mi
10:00 AM61 °FSunny.14 mph68%30.36 "Hg10 mi
9:00 AM59 °FSunny.12 mph72%30.33 "Hg10 mi
8:00 AM55 °FSunny.13 mph77%30.33 "Hg10 mi
7:00 AM55 °FSunny.15 mph77%30.30 "Hg10 mi
6:00 AM55 °FClear.12 mph77%30.30 "Hg10 mi
5:00 AM55 °FClear.13 mph77%30.27 "Hg10 mi
4:00 AM55 °FClear.12 mph82%30.27 "Hg10 mi
3:00 AM57 °FClear.12 mph82%30.27 "Hg10 mi
2:00 AM57 °FClear.14 mph82%30.27 "Hg10 mi
9:00 PM
Tue, Jun 30
48 °FPassing clouds.5 mph87%30.24 "Hg10 mi
Weather by CustomWeather, © 2015

See weather overviewHow to use our weather pages